Tracking 18843 objects as of 20-November-2017
HD Live streaming from Space Station
objects crossing your sky now

CZ-3B DEB

Track CZ-3B DEB now!


NORAD ID: 42462
Int'l Code: 2010-042AD
Perigee: 571.3 km
Apogee: 39,571.9 km
Inclination: 23.5 °
Period: 713.2 minutes
Semi major axis: 26442 km
RCS: Unknown
Launch date: September 4, 2010
Source: People's Republic of China (PRC)
Launch site: Xichang Space Center, China (XSC)

Note: This is SATELLITE DEBRIS
aabbcc
Your satellite tracking list
Your tracking list is empty




NASA's NSSDC Master Catalog

Two Line Element Set (TLE):
1 42462U 10042AD  17316.96824429 -.00000513 +00000-0 +10060-2 0  9996
2 42462 023.5272 163.1771 7374592 085.8971 347.3037 02.01905069017133
Source of the keplerian elements: AFSPC